Date String (YYYY-MM-DD hh:mm:ss) UTC,Instrument flags,Ambient pressure (hPa),Sample flow (lpm),Bypass flow (lpm),Sample temperature (°C),Ambient temperature (°C),ASC tube jacket temperature (°C),LED temperature (°C),Box temperature (°C),Sample RH (%),Mass concentration (μg/m³),Mass concentration (μg/m³)
DateTimeUTC,F1_M11,P_M11,Q1_M11,Q2_M11,T1_M11,T2_M11,T3_M11,T4_M11,T5_M11,U1_M11,X0_M11,X2_M11
2021-08-18 12:00:00,,0822.7,4.99,0.00,29.8,27.0,00.0,39.0,31.3,18.5,0020.87,0016.21
2021-08-18 12:01:00,,0822.7,5.00,0.00,29.7,27.4,00.0,39.0,31.3,18.5,0020.51,0016.24
2021-08-18 12:02:00,,0822.8,5.01,0.00,29.7,27.7,00.0,39.0,31.4,19.5,0020.43,0016.23
2021-08-18 12:03:00,,0822.8,4.98,0.00,29.7,27.9,00.0,39.0,31.4,19.9,0020.51,0016.23
2021-08-18 12:04:00,,0822.8,5.00,0.00,29.8,28.1,00.0,38.9,31.5,19.7,0020.83,0016.24
2021-08-18 12:05:00,,0822.8,5.00,0.00,29.8,28.3,00.0,38.9,31.5,19.6,0020.74,0016.29
2021-08-18 12:06:00,,0822.9,5.01,0.00,29.8,28.4,00.0,38.9,31.5,19.5,0020.70,0016.29
2021-08-18 12:07:00,,0822.9,4.99,0.00,29.8,28.6,00.0,38.9,31.6,19.6,0021.38,0016.37
2021-08-18 12:08:00,,0822.9,5.00,0.00,29.8,28.7,00.0,38.9,31.6,19.6,0022.03,0016.49
2021-08-18 12:09:00,,0823.0,5.00,0.00,29.9,28.8,00.0,39.0,31.7,19.6,0022.51,0016.57
2021-08-18 12:10:00,,0823.0,5.00,0.00,29.9,28.8,00.0,39.0,31.7,19.5,0023.39,0016.69
2021-08-18 12:11:00,,0822.9,5.00,0.00,29.9,28.9,00.0,39.0,31.7,19.5,0024.05,0016.87
2021-08-18 12:12:00,,0823.0,5.01,0.00,29.9,28.9,00.0,39.0,31.7,19.4,0024.29,0016.97
2021-08-18 12:13:00,,0823.1,4.98,0.00,29.9,28.9,00.0,39.0,31.8,19.5,0024.76,0017.05
2021-08-18 12:14:00,,0823.1,5.01,0.00,30.0,29.0,00.0,39.0,31.8,19.5,0025.09,0017.16
2021-08-18 12:15:00,,0823.1,4.99,0.00,30.0,29.0,00.0,39.0,31.8,19.5,0025.05,0017.29
2021-08-18 12:16:00,,0823.1,5.00,0.00,30.0,29.0,00.0,39.1,31.8,19.5,0025.28,0017.42
2021-08-18 12:17:00,,0823.1,5.00,0.00,30.0,29.1,00.0,39.1,31.8,19.6,0026.24,0017.56
2021-08-18 12:18:00,,0823.2,4.98,0.00,30.0,29.1,00.0,39.1,31.9,19.6,0027.10,0017.63
2021-08-18 12:19:00,,0823.2,5.01,0.00,30.0,29.2,00.0,39.1,31.9,19.7,0027.44,0017.70
2021-08-18 12:20:00,,0823.2,4.99,0.00,30.1,29.2,00.0,39.1,32.0,19.7,0027.58,0017.79
2021-08-18 12:21:00,,0823.2,5.01,0.00,30.1,29.2,00.0,39.1,32.0,19.6,0027.37,0017.88
2021-08-18 12:22:00,,0823.3,4.99,0.00,30.1,29.2,00.0,39.1,32.0,19.6,0028.16,0017.93
2021-08-18 12:23:00,,0823.2,5.01,0.00,30.1,29.2,00.0,39.2,32.0,20.0,0028.55,0017.99
2021-08-18 12:24:00,,0823.3,5.00,0.00,30.1,29.2,00.0,39.2,32.0,20.4,0028.44,0018.00
2021-08-18 12:25:00,,0823.4,5.00,0.00,30.1,29.2,00.0,39.2,31.9,20.5,0028.17,0017.98
2021-08-18 12:26:00,,0823.4,4.99,0.00,30.1,29.2,00.0,39.2,31.9,20.4,0028.01,0017.95
2021-08-18 12:27:00,,0823.4,5.00,0.00,30.1,29.2,00.0,39.2,31.9,20.5,0027.84,0017.86
2021-08-18 12:28:00,,0823.4,5.00,0.00,30.1,29.2,00.0,39.2,32.0,20.7,0027.18,0017.82
2021-08-18 12:29:00,,0823.3,4.99,0.00,30.1,28.6,00.0,39.2,31.7,21.2,0025.95,0017.75
2021-08-18 12:30:00,,0823.3,5.00,0.00,30.0,26.7,00.0,39.2,31.1,21.3,0025.29,0017.64
2021-08-18 12:31:00,,0823.3,5.00,0.00,29.8,26.4,00.0,39.1,31.1,22.0,0024.97,0017.56
2021-08-18 12:32:00,,0823.4,5.01,0.00,29.7,26.7,00.0,39.1,31.2,22.0,0024.46,0017.42
2021-08-18 12:33:00,,0823.3,5.00,0.00,29.7,27.1,00.0,39.1,31.2,22.5,0023.68,0017.32
2021-08-18 12:34:00,,0823.3,5.01,0.00,29.7,27.5,00.0,39.0,31.3,22.4,0023.04,0017.22
2021-08-18 12:35:00,,0823.3,5.00,0.00,29.7,27.8,00.0,39.0,31.4,22.6,0022.90,0017.19
2021-08-18 12:36:00,,0823.4,4.99,0.00,29.7,28.0,00.0,39.0,31.4,22.7,0022.91,0017.15
2021-08-18 12:37:00,,0823.3,5.02,0.00,29.7,28.2,00.0,39.0,31.5,22.7,0022.99,0017.13
2021-08-18 12:38:00,,0823.3,4.99,0.00,29.7,28.3,00.0,39.0,31.5,22.7,0023.02,0017.15
2021-08-18 12:39:00,,0823.3,5.01,0.00,29.8,28.4,00.0,39.0,31.5,22.6,0023.13,0017.12
2021-08-18 12:40:00,,0823.3,4.99,0.00,29.8,28.5,00.0,39.0,31.6,22.8,0023.15,0017.09
2021-08-18 12:41:00,,0823.3,4.99,0.00,29.8,28.6,00.0,39.0,31.6,23.0,0022.83,0017.08
2021-08-18 12:42:00,,0823.4,5.01,0.00,29.8,28.7,00.0,39.0,31.6,23.2,0022.94,0017.05
2021-08-18 12:43:00,,0823.4,5.00,0.00,29.8,28.7,00.0,39.0,31.6,24.4,0023.49,0017.04
2021-08-18 12:44:00,,0823.4,4.99,0.00,29.8,28.8,00.0,39.0,31.6,24.5,0023.97,0017.06
2021-08-18 12:45:00,,0823.5,5.00,0.00,29.8,28.8,00.0,39.0,31.7,25.0,0023.74,0017.03
2021-08-18 12:46:00,,0823.5,5.01,0.00,29.9,28.9,00.0,39.0,31.7,24.7,0023.78,0016.97
2021-08-18 12:47:00,,0823.5,5.00,0.00,29.9,28.9,00.0,39.0,31.7,24.1,0024.08,0016.93
2021-08-18 12:48:00,,0823.5,5.00,0.00,29.9,28.9,00.0,39.0,31.7,24.4,0024.29,0016.88
2021-08-18 12:49:00,,0823.5,5.01,0.00,29.9,29.0,00.0,39.0,31.7,24.2,0024.61,0016.83
2021-08-18 12:50:00,,0823.6,5.01,0.00,29.9,29.0,00.0,39.0,31.7,24.4,0024.79,0016.77
2021-08-18 12:51:00,,0823.6,5.00,0.00,29.9,29.0,00.0,39.0,31.7,24.1,0024.85,0016.77
2021-08-18 12:52:00,,0823.5,4.99,0.00,29.9,29.0,00.0,39.0,31.7,23.5,0024.80,0016.76
2021-08-18 12:53:00,,0823.6,5.01,0.00,29.9,29.0,00.0,39.0,31.8,23.1,0024.89,0016.77
2021-08-18 12:54:00,,0823.6,4.99,0.00,30.0,29.1,00.0,39.1,31.7,22.9,0024.75,0016.82
2021-08-18 12:55:00,,0823.7,5.01,0.00,30.0,29.1,00.0,39.1,31.7,23.3,0024.17,0016.77
2021-08-18 12:56:00,,0823.6,5.00,0.00,30.0,29.1,00.0,39.1,31.8,23.7,0024.32,0016.79
2021-08-18 12:57:00,,0823.7,4.99,0.00,30.0,29.1,00.0,39.1,31.8,24.2,0024.26,0016.83
2021-08-18 12:58:00,,0823.7,5.01,0.00,30.0,29.1,00.0,39.1,31.7,24.2,0024.15,0016.91
2021-08-18 12:59:00,,0823.7,4.99,0.00,30.0,29.1,00.0,39.1,31.8,24.6,0024.26,0016.96
